Holland, MI

9:47 PM EDT on March 30, 2017 (GMT -0400)
Tulip City

Weather History for KBIV - November, 2013

Change the Weather History Date:

Thursday, November 7, 2013

  Actual Average Record
Temperature  
Mean Temperature 39 °F 45 °F  
Max Temperature 43 °F 53 °F 74 °F (1975)
Min Temperature 34 °F 37 °F 20 °F (1991)
Degree Days  
Heating Degree Days 26 20  
Month to date heating degree days 124 132  
Since 1 July heating degree days 618 657  
Cooling Degree Days 0 0  
Month to date cooling degree days 0 0  
Year to date cooling degree days 811 693  
Moisture  
Dew Point 31 °F    
Average Humidity 74    
Maximum Humidity 92    
Minimum Humidity 55    
Precipitation  
Precipitation 0.14 in 0.13 in 0.61 in (1972)
Month to date precipitation 1.87 1.04  
Year to date precipitation 36.23 31.74  
Sea Level Pressure  
Sea Level Pressure 30.15 in    
Wind  
Wind Speed 12 mph (WNW)    
Max Wind Speed 18 mph    
Max Gust Speed 28 mph    
Visibility 9 miles    
Events Rain , Snow    
T = Trace of Precipitation, MM = Missing Value Source: NWS Daily Summary

Daily Weather History Graph

Daily Weather History Graph

Search for Another Location

Airport or City:

Trip Planner

Search our weather history database for the weather conditions in past years. The results will help you decide how hot, cold, wet, or windy it might be!

Date:

Astronomy

Nov. 07, 2013 Rise Set
Actual Time 7:26 AM EST 5:29 PM EST
Civil Twilight 6:56 AM EST 5:59 PM EST
Nautical Twilight 6:22 AM EST 6:32 PM EST
Astronomical Twilight 5:49 AM EST 7:05 PM EST
Moon 11:35 AM EST (11/7) 9:39 PM EST (11/7)
Length of Visible Light 11h 02m
Length of Day
10h 03m
Waxing Crescent, 22% of the Moon is Illuminated
Nov 7
Waxing Crescent
Nov 10
First Quarter
Nov 17
Full
Nov 25
Last Quarter
Dec 2
New

Hourly Weather History & Observations

Time (EST) Temp. Windchill Dew Point Humidity Pressure Visibility Wind Dir Wind Speed Gust Speed Precip Events Conditions
12:28 AM 42.8 °F 36.6 °F 33.8 °F 70% 30.07 in 10.0 mi WNW 11.5 mph 19.6 mph N/A   Overcast
12:37 AM 42.8 °F 37.0 °F 32.0 °F 66% 30.07 in 10.0 mi WNW 10.4 mph 19.6 mph N/A   Overcast
12:53 AM 42.1 °F 35.7 °F 30.9 °F 65% 30.09 in 10.0 mi NW 11.5 mph 20.7 mph N/A   Mostly Cloudy
1:53 AM 39.0 °F 31.0 °F 28.9 °F 67% 30.11 in 10.0 mi WNW 13.8 mph - N/A   Mostly Cloudy
2:53 AM 39.0 °F 32.3 °F 27.0 °F 62% 30.12 in 10.0 mi NW 10.4 mph - N/A   Mostly Cloudy
3:53 AM 39.0 °F 34.0 °F 27.0 °F 62% 30.13 in 10.0 mi NW 6.9 mph 19.6 mph N/A   Overcast
4:53 AM 39.0 °F 32.3 °F 27.0 °F 62% 30.14 in 10.0 mi WNW 10.4 mph 18.4 mph N/A   Mostly Cloudy
5:53 AM 39.0 °F 31.4 °F 27.0 °F 62% 30.15 in 10.0 mi NW 12.7 mph 24.2 mph N/A   Scattered Clouds
6:53 AM 37.9 °F 30.5 °F 27.0 °F 65% 30.17 in 10.0 mi NW 11.5 mph 23.0 mph N/A   Mostly Cloudy
7:01 AM 37.4 °F 30.3 °F 28.4 °F 70% 30.15 in 10.0 mi NW 10.4 mph 17.3 mph N/A   Mostly Cloudy
7:17 AM 37.4 °F 31.4 °F 28.4 °F 70% 30.15 in 10.0 mi WNW 8.1 mph 17.3 mph N/A   Mostly Cloudy
7:53 AM 37.9 °F 30.9 °F 28.0 °F 68% 30.18 in 10.0 mi NW 10.4 mph 18.4 mph N/A   Mostly Cloudy
8:53 AM 39.9 °F 32.9 °F 28.9 °F 65% 30.19 in 10.0 mi NW 11.5 mph 18.4 mph N/A   Mostly Cloudy
9:53 AM 41.0 °F 33.9 °F 30.0 °F 65% 30.19 in 10.0 mi WNW 12.7 mph 18.4 mph N/A   Mostly Cloudy
10:32 AM 42.8 °F 35.8 °F 30.2 °F 61% 30.18 in 10.0 mi West 13.8 mph 24.2 mph N/A   Mostly Cloudy
10:53 AM 42.1 °F 35.7 °F 30.9 °F 65% 30.20 in 10.0 mi WNW 11.5 mph - N/A   Mostly Cloudy
11:20 AM 42.8 °F 37.0 °F 30.2 °F 61% 30.18 in 10.0 mi WNW 10.4 mph - N/A   Scattered Clouds
11:53 AM 42.1 °F 37.1 °F 32.0 °F 67% 30.20 in 10.0 mi WNW 8.1 mph - N/A   Mostly Cloudy
12:18 PM 42.8 °F 36.6 °F 30.2 °F 61% 30.18 in 10.0 mi WNW 11.5 mph 19.6 mph N/A   Mostly Cloudy
12:45 PM 42.8 °F 36.6 °F 32.0 °F 66% 30.17 in 10.0 mi West 11.5 mph 18.4 mph N/A   Mostly Cloudy
12:53 PM 42.1 °F 35.7 °F 32.0 °F 67% 30.18 in 10.0 mi West 11.5 mph - N/A   Mostly Cloudy
1:16 PM 42.8 °F 36.2 °F 32.0 °F 66% 30.16 in 10.0 mi West 12.7 mph 18.4 mph N/A   Overcast
1:53 PM 42.1 °F 34.5 °F 32.0 °F 67% 30.17 in 10.0 mi West 15.0 mph - N/A   Overcast
2:04 PM 42.8 °F 34.8 °F 32.0 °F 66% 30.15 in 10.0 mi West 17.3 mph 24.2 mph N/A   Overcast
2:12 PM 42.8 °F 37.5 °F 32.0 °F 66% 30.15 in 10.0 mi West 9.2 mph 24.2 mph N/A   Overcast
2:53 PM 42.1 °F 33.6 °F 32.0 °F 67% 30.16 in 10.0 mi West 18.4 mph 23.0 mph N/A   Mostly Cloudy
3:23 PM 41.0 °F 33.9 °F 32.0 °F 70% 30.13 in 10.0 mi WNW 12.7 mph 18.4 mph N/A   Overcast
3:42 PM 42.8 °F 36.2 °F 32.0 °F 66% 30.13 in 10.0 mi West 12.7 mph 19.6 mph N/A   Overcast
3:53 PM 42.1 °F 34.5 °F 32.0 °F 67% 30.14 in 10.0 mi West 15.0 mph 20.7 mph N/A   Overcast
4:53 PM 42.1 °F 35.2 °F 32.0 °F 67% 30.14 in 10.0 mi West 12.7 mph 24.2 mph N/A   Overcast
5:53 PM 41.0 °F 33.1 °F 30.0 °F 65% 30.14 in 10.0 mi West 15.0 mph 21.9 mph 0.00 in   Partly Cloudy
6:53 PM 41.0 °F 34.7 °F 27.0 °F 57% 30.16 in 10.0 mi West 10.4 mph 20.7 mph N/A   Overcast
7:53 PM 42.1 °F 35.2 °F 28.9 °F 60% 30.16 in 10.0 mi West 12.7 mph 20.7 mph N/A   Overcast
8:53 PM 39.0 °F 29.9 °F 30.9 °F 73% 30.16 in 8.0 mi NW 17.3 mph 25.3 mph 0.00 in Rain Light Rain
9:05 PM 35.6 °F 27.1 °F 32.0 °F 87% 30.15 in 4.0 mi NNW 12.7 mph 24.2 mph 0.02 in Snow Light Snow
9:15 PM 35.6 °F 28.6 °F 32.0 °F 87% 30.15 in 2.5 mi NNW 9.2 mph 25.3 mph 0.03 in Snow Light Snow
9:18 PM 35.6 °F 28.6 °F 33.8 °F 93% 30.15 in 3.0 mi NNW 9.2 mph 18.4 mph 0.04 in Snow Light Snow
9:40 PM 35.6 °F 27.5 °F 32.0 °F 87% 30.15 in 5.0 mi NNW 11.5 mph 19.6 mph 0.05 in Snow Light Snow
9:51 PM 35.6 °F 29.2 °F 33.8 °F 93% 30.15 in 7.0 mi NNW 8.1 mph - 0.05 in Snow Light Snow
9:53 PM 35.1 °F 27.4 °F 33.1 °F 92% 30.18 in 8.0 mi NNW 10.4 mph - 0.05 in Snow Light Snow
10:32 PM 33.8 °F 26.4 °F 32.0 °F 93% 30.16 in 2.5 mi NNW 9.2 mph - 0.07 in Snow Light Snow
10:48 PM 35.6 °F 30.7 °F 33.8 °F 93% 30.16 in 5.0 mi NNW 5.8 mph - 0.08 in Snow Light Snow
10:53 PM 35.1 °F 29.3 °F 33.1 °F 92% 30.17 in 6.0 mi NNW 6.9 mph - 0.09 in Snow Light Snow
11:53 PM 37.9 °F 32.7 °F 30.9 °F 76% 30.17 in 10.0 mi WNW 6.9 mph - 0.00 in   Overcast